Погода в Санта-Элене

Эквадор     2°13′38″S   80°51′19″W
темп.,
°C
ветер,
м/с
пор.,
м/с
влажн.,
%
обл.,
%
осадки,
мм/ч
давл.,
гПа
погр.,
м
14 апреля, ср
ср1401:00+23з128595 0.1 1011125
04:00+22зюз3386100 0.1 1010189
07:00+22зюз128468 0.1 1012163
10:00+26зюз2267100 0.0 1013605
13:00+28з53625 0.0 1011807
16:00+26з55665 0.0 1008558
19:00+23з458161 0.0 1010311
22:00+22зюз348490 0.0 1012260
15 апреля, чт
чт1501:00+23зюз2283100 0.0 1012296
04:00+22юв1185100 0.0 1011115
07:00+23вюв128499 0.1 1012157
10:00+24ююз108299 0.2 1012244
13:00+27з326691 0.2 1009719
16:00+26з557194 0.0 1008590
19:00+23з238337 0.0 1010152
22:00+23ссз0081100 0.0 101290
16 апреля, пт
пт1601:00+23всв1283100 0.0 1012106
04:00+22в2388100 0.4 1010155
07:00+23вюв228579 0.6 1011117
10:00+25ю1171100 0.0 1012359
13:00+28зюз3264100 0.0 1010752
16:00+27з436952 0.0 1007668
19:00+24зюз348696 0.0 1009221
22:00+23юз3390100 0.0 1012212
17 апреля, сб
сб1701:00+23ююз2389100 0.0 1011236
04:00+23ююв128897 0.0 1010154
07:00+23юв118664 0.1 1011112
10:00+27зюз116537 0.1 1012671
13:00+28з536424 0.1 1009936
16:00+26з55716 0.0 1008597
19:00+23з34835 0.0 1010305
22:00+23юз238370 0.0 1012174
18 апреля, вс
вс1801:00+23ююз3384100 0.0 1011297
04:00+22юз2391100 0.8 1011245
07:00+22зюз228897 0.9 1012254
10:00+24ссз1179100 0.1 1014333
13:00+26зсз227358 0.2 1011514
16:00+26з4374100 0.0 1009480
19:00+23зюз3382100 0.0 1010218
22:00+23ююз3483100 0.0 1012216